This is the latest recevied weather packets stored in our database for station/object OK5TVR-14. If no packets are shown the sender has not sent any weather packets the latest 1 day(s).
| Time | Temp. | Humidity | Pressure | Rain* | Wind** | Luminosity | Snow |
|---|---|---|---|---|---|---|---|
| 1788510112 | 20.56° C | 70% | 1012.6 hPa | 0 mm | 0 m/s | 0 W/m² | - |
| 1788509212 | 20.56° C | 70% | 1012.8 hPa | 0 mm | 0 m/s | 0 W/m² | - |
| 1788508312 | 20° C | 70% | 1012.9 hPa | 0 mm | 0 m/s | 0 W/m² | - |
| 1788507412 | 19.44° C | 70% | 1013.1 hPa | 0 mm | 0 m/s | 0 W/m² | - |
| 1788506512 | 18.89° C | 70% | 1013.2 hPa | 0 mm | 0 m/s | 0 W/m² | - |
| 1788505612 | 18.33° C | 71% | 1013.4 hPa | 0 mm | 0 m/s | 0 W/m² | - |
| 1788504712 | 17.78° C | 72% | 1013.7 hPa | 0 mm | 0 m/s | 0 W/m² | - |
| 1788503812 | 17.22° C | 73% | 1013.7 hPa | 0 mm | 0 m/s | 0 W/m² | - |
| 1788502912 | 16.67° C | 74% | 1013.7 hPa | 0 mm | 0 m/s | 0 W/m² | - |
| 1788502012 | 16.67° C | 73% | 1013.8 hPa | 0 mm | 0 m/s | 0 W/m² | - |
| 1788501112 | 16.67° C | 74% | 1013.9 hPa | 0 mm | 0 m/s | 0 W/m² | - |
| 1788500212 | 16.11° C | 75% | 1014 hPa | 0 mm | 0 m/s | 0 W/m² | - |
| 1788499312 | 16.11° C | 75% | 1014.1 hPa | 0 mm | 0 m/s | 0 W/m² | - |
| 1788498412 | 16.11° C | 75% | 1014.2 hPa | 0 mm | 0 m/s | 0 W/m² | - |
| 1788497512 | 16.11° C | 75% | 1014.3 hPa | 0 mm | 0 m/s | 0 W/m² | - |
| 1788496638 | 16.11° C | 75% | 1014.3 hPa | 0 mm | 0 m/s | 0 W/m² | - |
| 1788495712 | 16.11° C | 75% | 1014.2 hPa | 0 mm | 0 m/s | 0 W/m² | - |
| 1788494812 | 16.11° C | 75% | 1014.2 hPa | 0 mm | 0 m/s | 0 W/m² | - |
| 1788493912 | 16.11° C | 75% | 1014.1 hPa | 0 mm | 0 m/s | 0 W/m² | - |
| 1788493012 | 16.11° C | 75% | 1014.1 hPa | 0 mm | 0 m/s | 0 W/m² | - |
| 1788492112 | 16.11° C | 75% | 1014.3 hPa | 0 mm | 0 m/s | 0 W/m² | - |
| 1788491212 | 16.67° C | 75% | 1014.2 hPa | 0 mm | 0 m/s | 0 W/m² | - |
| 1788490312 | 16.67° C | 75% | 1014.4 hPa | 0 mm | 0 m/s | 0 W/m² | - |
| 1788489412 | 16.67° C | 74% | 1014.4 hPa | 0 mm | 0 m/s | 0 W/m² | - |
| 1788488512 | 16.67° C | 75% | 1014.6 hPa | 0 mm | 0 m/s | 0 W/m² | - |
* Rain latest hour (hover to see other rain measurements)
** Current wind speed in m/s (hover to see current wind gust speed)